Starlink 31220

operational
NORAD ID: 59039 Int'l Des: 2024-038 Owner: SPXS Country: US Constellation: starlink
LEOCIRCULAR

Starlink 31220について

説明を読み込み中...

リアルタイム位置

3D地球を読み込み中...

次回通過

高度履歴

Altitude vs Time

uPlot chart will show altitude changes over time

軌道要素

1 59039U 24038S 25260.05648696 -.00001006 00000-0 -27052-4 0 9991
2 59039 42.9997 287.5670 0001134 274.5869 85.4853 15.27566601 88203
Epoch: Sep 17, 2025 • Age: 22 hours

現在のステータス

高度 492.8 km
速度 7.62 km/s
衛星直下点 -36.05°S, 111.61°W
打ち上げ日 Feb 25, 2024
運用期間 1.5 years
タイプ internet

技術仕様

分類 Payload
質量 730.00 kg
乾燥質量 700.00 kg
総質量 730.00 kg
長さ 0.30 m
直径 4.10 m
スパン 29.00 m
形状 Box + pan
製造者 SPXS
バスタイプ Starlink V2M
フェーズステータス In Orbit
所有者/国 SPXS/US

大規模コンステレーション

Loading constellations...